Flag for Austria Weather past 2 weeks in Kirchdorf an der Krems, Upper Austria, Austria

Now
58 °F

Cool.


Feels Like: 59 °F
Forecast: 42 / 65 °F
Wind: 3 mph from Southwest

Location: Kremsmuenster

Current Time: Oct 2, 2014 at 5:09:30 AM

Latest Report: Oct 2, 2014 at 4:00 AM


Visibility: N/A

Pressure: 30.34 "Hg

Humidity: 94%

Dew point: 56 °F

Location of Kirchdorf an der KremsLocation

Historic Weather in Kirchdorf an der Krems — Graph

°F

Kirchdorf an der Krems temperature yesterday

Maximum temperature yesterday: 62 °F (at 12:00 AM)
Minimum temperature yesterday: 58 °F (at 8:00 AM)
Average temperature yesterday: 59 °F

Past Weeks' High & Low Weather Summary

 TemperatureHumidityPressure
High76 °F (Sep 17, 4:00 PM)100% (Sep 28, 11:00 AM)30.41 "Hg (Sep 28, 11:00 AM)
Low36 °F (Sep 24, 7:00 AM)42% (Sep 17, 4:00 PM)29.88 "Hg (Sep 17, 5:00 PM)
Average57 °F84%30.13 "Hg
* Reported Sep 17 3:00 AM — Oct 2 3:00 AM, Kirchdorf an der Krems, Weather by CustomWeather, © 2014

Note: Actual official high and low records may vary slightly from our data, if they occured in-between our weather recording intervals... More about our weather records

Advertising

Kirchdorf an der Krems weather history for previous 24 hours

 ConditionsComfort  
Time TempWeatherWind HumidityBarometerVisibility
3:00 AM
Oct 2
58 °FCool.3 mph95%30.34 "HgN/A
2:00 AM58 °FCool.3 mph94%30.34 "HgN/A
1:00 AM59 °FCool.2 mph94%30.33 "HgN/A
12:00 AM59 °FCool.3 mph94%30.32 "HgN/A
11:00 PM
Oct 1
59 °FCool.2 mph96%30.32 "HgN/A
10:00 PM59 °FCool.3 mph95%30.32 "HgN/A
9:00 PM59 °FCool.2 mph95%30.31 "HgN/A
8:00 PM59 °FRain. Low clouds.1 mph95%30.30 "Hg3 mi
7:00 PM60 °FFog.1 mph96%30.29 "HgN/A
6:00 PM60 °FFog.2 mph94%30.28 "HgN/A
5:00 PM60 °FRain. Low clouds.1 mph94%30.27 "Hg2 mi
4:00 PM61 °FFog.1 mph91%30.27 "HgN/A
3:00 PM61 °FFog.1 mph89%30.28 "HgN/A
2:00 PM61 °FCool.2 mph91%30.28 "HgN/A
1:00 PM60 °FFog.2 mph94%30.29 "HgN/A
12:00 PM60 °FFog.1 mph94%30.29 "HgN/A
11:00 AM58 °FRain. Low clouds.3 mph94%30.30 "Hg2 mi
10:00 AM58 °FFog.3 mph94%30.30 "HgN/A
9:00 AM58 °FFog.3 mph94%30.29 "HgN/A
8:00 AM58 °FLight rain. Low clouds.3 mph93%30.29 "Hg2 mi
7:00 AM58 °FLight rain. Low clouds.3 mph93%30.28 "Hg2 mi
6:00 AM58 °FFog.3 mph93%30.28 "HgN/A
5:00 AM58 °FCool.3 mph91%30.29 "HgN/A
Weather by CustomWeather, © 2014

See weather overviewHow to use our weather pages